JR3QFB-13 Weather Reports


time (UTC)temp
C
wind
direction
speed
KPH
gust
KPH
rain 1hr
cm
rain 24hr
cm
rain mn
cm
humidity
%
barometer
mb
20260906212134 28 135 1.6 1.6 0.00 0.00 0.00 81 1001.8
20260906210632 28 135 0.0 3.2 0.00 0.00 0.00 80 1001.6
20260906205129 28 135 1.6 4.8 0.00 0.00 0.00 80 1001.6
20260906203628 28 135 0.0 1.6 0.00 0.00 0.00 80 1001.7
20260906202124 28 135 0.0 0.0 0.00 0.00 0.00 79 1001.7
20260906200622 28 135 0.0 3.2 0.00 0.00 0.00 79 1001.6
20260906195119 28 135 0.0 1.6 0.00 0.00 0.00 79 1001.5
20260906193618 28 135 1.6 6.4 0.00 0.00 0.00 78 1001.4
20260906192114 28 135 4.8 6.4 0.00 0.00 0.00 78 1001.6
20260906190612 28 135 6.4 8.0 0.00 0.00 0.00 78 1001.6
20260906185109 28 135 4.8 4.8 0.00 0.00 0.00 77 1002.0
20260906183608 28 135 6.4 6.4 0.00 0.00 0.00 77 1002.1
20260906182104 28 135 1.6 4.8 0.00 0.00 0.00 77 1002.2
20260906180602 28 135 1.6 6.4 0.00 0.00 0.00 77 1002.1
20260906175059 28 135 1.6 6.4 0.00 0.00 0.00 77 1002.1
20260906173558 28 135 3.2 6.4 0.00 0.00 0.00 77 1001.9
20260906172054 28 135 0.0 3.2 0.00 0.00 0.00 78 1002.1
20260906170552 28 135 0.0 4.8 0.00 0.00 0.00 78 1002.3
20260906165049 28 135 1.6 4.8 0.00 0.00 0.00 78 1002.4
20260906163548 28 135 1.6 12.9 0.00 0.00 0.00 77 1002.5
20260906162044 28 135 1.6 9.7 0.00 0.00 0.00 77 1002.8
20260906160542 28 135 6.4 11.3 0.00 0.00 0.00 77 1003.0
20260906155039 28 135 1.6 9.7 0.00 0.00 0.00 77 1003.3
20260906153538 28 135 1.6 6.4 0.00 0.00 0.00 77 1003.3
20260906152034 28 135 1.6 8.0 0.00 0.00 0.00 76 1003.4
20260906150532 28 135 1.6 8.0 0.00 0.00 0.00 75 1003.7
20260906145029 28 135 4.8 6.4 0.00 0.00 0.00 75 1003.8
20260906143528 28 135 1.6 4.8 0.00 0.00 0.00 76 1003.8
20260906142024 28 135 0.0 3.2 0.00 0.00 0.00 76 1003.7
20260906140522 28 135 1.6 1.6 0.00 0.00 0.00 76 1003.6
20260906135019 28 135 1.6 3.2 0.00 0.00 0.00 76 1003.5
20260906133518 28 135 1.6 4.8 0.00 0.00 0.00 75 1003.7
20260906132014 28 135 0.0 1.6 0.00 0.00 0.00 74 1003.7
20260906130512 28 135 0.0 3.2 0.00 0.00 0.00 74 1003.9
20260906125009 28 135 4.8 4.8 0.00 0.00 0.00 74 1003.8
20260906123508 28 135 0.0 1.6 0.00 0.00 0.00 74 1003.9
20260906122004 28 135 0.0 4.8 0.00 0.00 0.00 74 1004.0
20260906120502 28 135 0.0 1.6 0.00 0.00 0.00 74 1003.9
20260906114959 28 135 4.8 4.8 0.00 0.00 0.00 74 1004.0
20260906113458 28 135 0.0 6.4 0.00 0.00 0.00 73 1003.9
20260906111954 28 135 1.6 6.4 0.00 0.00 0.00 73 1003.9
20260906110452 28 135 1.6 3.2 0.00 0.00 0.00 73 1003.9
20260906104949 28 135 4.8 4.8 0.00 0.00 0.00 73 1004.2
20260906103448 28 135 3.2 8.0 0.00 0.00 0.00 72 1003.7
20260906101944 28 135 4.8 6.4 0.00 0.00 0.00 72 1003.8
20260906100442 28 135 8.0 9.7 0.00 0.00 0.00 72 1003.7
20260906094939 28 135 8.0 9.7 0.00 0.00 0.00 72 1003.7
20260906093438 28 135 6.4 16.1 0.00 0.00 0.00 72 1003.9
20260906091934 28 87 4.8 16.1 0.00 0.00 0.00 72 1003.7
20260906090432 28 0 6.4 12.9 0.00 0.00 0.00 72 1003.5
20260906084929 28 315 9.7 17.7 0.00 0.00 0.00 73 1003.6
20260906083428 28 180 6.4 14.5 0.00 0.00 0.00 72 1003.5
20260906081924 28 69 20.9 20.9 0.00 0.00 0.00 73 1003.6
20260906080422 28 85 6.4 20.9 0.00 0.00 0.00 73 1003.7
20260906074919 28 90 3.2 12.9 0.00 0.00 0.00 72 1003.9
20260906073418 28 90 8.0 20.9 0.00 0.00 0.00 72 1004.2
20260906071914 28 135 8.0 11.3 0.00 0.00 0.00 72 1004.0
20260906070411 28 135 4.8 16.1 0.00 0.00 0.00 71 1003.9
20260906064909 28 135 4.8 12.9 0.00 0.00 0.00 71 1004.0
20260906063408 28 135 4.8 12.9 0.00 0.00 0.00 71 1004.0
20260906061904 28 135 9.7 16.1 0.00 0.00 0.00 71 1004.3
20260906060402 28 135 9.7 12.9 0.00 0.00 0.00 70 1004.2
20260906054859 28 135 6.4 11.3 0.00 0.00 0.00 70 1004.4
20260906053357 28 121 11.3 11.3 0.00 0.00 0.00 70 1004.6
20260906051854 28 22 6.4 17.7 0.00 0.00 0.00 69 1004.6
20260906050351 28 135 9.7 19.3 0.00 0.00 0.00 69 1004.7
20260906044849 28 135 4.8 17.7 0.00 0.00 0.00 69 1004.8
20260906043347 28 337 4.8 12.9 0.00 0.00 0.00 68 1004.8
20260906041844 28 315 9.7 11.3 0.00 0.00 0.00 68 1004.8
20260906040341 28 0 6.4 9.7 0.00 0.00 0.00 68 1005.1
20260906034839 28 0 1.6 6.4 0.00 0.00 0.00 69 1005.2
20260906033337 28 0 6.4 11.3 0.00 0.00 0.00 69 1005.3
20260906031834 28 0 4.8 11.3 0.00 0.00 0.00 69 1005.4
20260906030331 28 0 8.0 8.0 0.00 0.00 0.00 69 1005.5
20260906024829 28 0 1.6 8.0 0.00 0.00 0.00 69 1005.8
20260906023327 28 0 1.6 14.5 0.00 0.00 0.00 69 1005.8
20260906021824 28 0 4.8 11.3 0.00 0.00 0.00 70 1005.9
20260906020321 28 112 4.8 9.7 0.00 0.00 0.00 70 1006.1
20260906014819 28 112 6.4 6.4 0.00 0.00 0.00 71 1006.3
20260906013317 28 135 9.7 11.3 0.00 0.00 0.00 71 1006.3
20260906011814 28 90 6.4 11.3 0.00 0.00 0.00 72 1006.5
20260906010311 28 135 6.4 6.4 0.00 0.00 0.00 73 1006.8
20260906004809 28 135 1.6 8.0 0.00 0.00 0.00 73 1006.9
20260906003307 28 135 4.8 9.7 0.00 0.00 0.00 74 1006.9
20260906001804 28 135 3.2 9.7 0.00 0.00 0.00 74 1006.9
20260906000303 28 135 4.8 9.7 0.00 0.00 0.00 74 1006.9
20260905234759 28 135 3.2 9.7 0.00 0.00 0.00 74 1007.1
20260905233257 28 135 3.2 9.7 0.00 0.00 0.00 74 1007.3
20260905231754 28 135 11.3 11.3 0.00 0.00 0.00 73 1007.3
20260905230251 28 135 4.8 6.4 0.00 0.00 0.00 72 1007.1
20260905224749 28 135 0.0 4.8 0.00 0.00 0.00 71 1007.1
20260905223247 28 135 3.2 6.4 0.00 0.00 0.00 70 1007.2
20260905221744 28 135 0.0 8.0 0.00 0.00 0.00 70 1007.5
20260905220241 28 135 4.8 6.4 0.00 0.00 0.00 70 1007.4
20260905214739 28 135 3.2 6.4 0.00 0.00 0.00 69 1007.2
20260905213237 28 135 1.6 6.4 0.00 0.00 0.00 69 1007.2